Regional Weather Roundup
Issued by NWS

Home | Current Version | Previous Version | Text Only | Print | Product List | Glossary Off
Versions: 1 2 3 4 5 6 7 8 9 10 11 12 13 14 15 16 17 18 19 20 21 22 23 24 25 26 27 28 29 30 31 32 33 34 35 36 37 38 39 40 41 42 43 44 45 46 47 48 49

000
ASUS45 KTFX 021310
RWRMT
MONTANA REGIONAL WEATHER ROUNDUP
NATIONAL WEATHER SERVICE GREAT FALLS MT
700 AM MDT THU JUL 02 2015

NOTE: "FAIR" INDICATES FEW OR NO CLOUDS BELOW 12000 FEET WITH NO
SIGNIFICANT WEATHER AND/OR OBSTRUCTIONS TO VISIBILITY.

MTZ001>007-043-021400-
WEST OF THE DIVIDE

CITY           SKY/WX    TMP DP  RH WIND       PRES   REMARKS
KALISPELL      MOSUNNY   70  51  51 N8        30.11R
MISSOULA       SUNNY     70  51  51 SE10      30.13R
BUTTE          SUNNY     51  46  83 SE5       30.28R HAZE
MULLAN PASS    CLEAR     62  41  46 SE10      30.25R
DEER LODGE       N/A     59  52  77 CALM      30.27R
EUREKA           N/A     59  54  82 CALM      30.13R
HAMILTON         N/A     59  45  58 S8        30.14R
PLAINS           N/A     57  47  69 CALM      30.09R
RONAN            N/A     61  56  83 CALM      30.15R
$$

MTZ008-052>055-021400-
SOUTHWEST MONTANA

CITY           SKY/WX    TMP DP  RH WIND       PRES   REMARKS
BOZEMAN        SUNNY     58  54  86 CALM      30.22R FOG
DILLON         SUNNY     59  50  72 E9        30.23R
W YELLOWSTONE  SUNNY     46  41  81 CALM      30.30S
THREE FORKS      N/A     59  59 100 CALM      30.19R
TWIN BRIDGES     N/A     63  48  57 N14       30.17S
$$

MTZ009-010-012-014-046-048-049-054-021400-
EAST SLOPES AND CENTRAL MONTANA

CITY           SKY/WX    TMP DP  RH WIND       PRES   REMARKS
CUT BANK       SUNNY     54  50  86 W5        30.22R
GREAT FALLS    SUNNY     62  52  69 W5        30.21R
MALMSTROM AFB  SUNNY     58  53  82 S3        30.21S
HELENA         SUNNY     66  51  58 W8        30.21S
CONRAD           N/A     55  55 100 CALM      30.21S
$$

MTZ011-013-016-021-045-047-050-051-021400-
NORTH CENTRAL MONTANA

CITY           SKY/WX    TMP DP  RH WIND       PRES   REMARKS
HAVRE          SUNNY     56  54  93 SW5       30.16R FOG
LEWISTOWN      SUNNY     60  52  74 SW3       30.22S
CHINOOK          N/A     57  55  94 W3        30.15R
FORT BENTON      N/A     59  52  77 S3        30.19S
$$

MTZ017>020-022>027-061-062-021400-
NORTHEAST MONTANA

CITY           SKY/WX    TMP DP  RH WIND       PRES   REMARKS
GLASGOW        SUNNY     59  55  87 W7        30.08R
JORDAN           N/A     59  52  77 NW3       30.12R
SIDNEY         SUNNY     61  55  82 CALM      30.05R
WOLF POINT     CLOUDY    61  57  87 SW6       30.06R
MALTA            N/A     59  55  86 CALM      30.07R
PLENTYWOOD       N/A     59  59 100 SW3       30.05R
SCOBEY           N/A     57  53  86 CALM      30.05R
$$

MTZ028>42-056>058-021400-
SOUTHCENTRAL AND SOUTHEAST MONTANA

CITY           SKY/WX    TMP DP  RH WIND       PRES   REMARKS
BAKER          CLOUDY    59  58  96 W10       30.10R FOG
BILLINGS       MOSUNNY   65  54  67 NW6       30.18S
LIVINGSTON     SUNNY     60  51  72 CALM      30.23R
MILES CITY     SUNNY     63  54  72 NW5       30.10S
EKALAKA          N/A     60  58  93 S2        30.09R
FORSYTH          N/A     63  61  94 W7        30.11S
LAUREL           N/A     62  51  67 CALM      30.15S
ROUNDUP          N/A     62  55  77 CALM      30.08S
$$

REGIONAL REPORTS...DAKOTAS

CITY           SKY/WX    TMP DP  RH WIND       PRES   REMARKS
WILLISTON      MOSUNNY   59  54  83 CALM      30.03R
MINOT          MOSUNNY   64  60  87 W6        29.97R FOG
DICKINSON      SUNNY     61  58  90 W7        30.02S FOG
BEACH          FAIR      59  59 100 W5        30.08S
CROSBY         FOG       61  61 100 NW6       30.03R VSB 1
BISMARCK       MOSUNNY   65  63  93 N3        29.98R FOG
GRAND FORKS    MOSUNNY   60  56  86 S9        29.95F
FARGO          SUNNY     61  54  77 S8        29.99R
BUFFALO SD       N/A     63  60  90 N6        30.01R
RAPID CITY     SUNNY     65  62  90 N14       30.06R
$$

REGIONAL REPORTS...WYOMING/IDAHO/WASHINGTON

CITY           SKY/WX    TMP DP  RH WIND       PRES   REMARKS
GILLETTE       MOSUNNY   61  56  83 SW3       30.16S
SHERIDAN       SUNNY     63  55  75 W9        30.18R
BUFFALO WY     SUNNY     62  54  74 NW7       30.23R
CODY           SUNNY     63  46  55 CALM      30.23S
YELLOWSTONE LA   N/A     48  42  80 CALM      30.38S
IDAHO FALLS    MOSUNNY   59  53  80 N8        30.12R
SALMON         PTCLDY    55  45  67 CALM      30.15R
BOISE          CLEAR     71  43  36 SE6       30.00R
SPOKANE        PTCLDY    70  50  49 NE5       30.02R
$$

REGIONAL REPORTS...ALBERTA

CITY           SKY/WX    TMP DP  RH WIND       PRES   REMARKS
EDMONTON       SUNNY     63  54  72 W3        30.09S
CALGARY        MOSUNNY   57  52  82 NW3       30.20R
LETHBRIDGE     MOSUNNY   57  55  94 SW8       30.18S
MEDICINE HAT   MOSUNNY   57  55  94 SW7       30.15R SMOKE
WATERTON GATE    N/A     55  52  88 SW6         N/A
CARDSTON         N/A     55  54  94 SE3         N/A
MILK RIVER       N/A     57  52  82 NW6         N/A
ONEFOUR          N/A     57  54  88 NW9         N/A
$$

REGIONAL REPORTS...SASKATCHEWAN

CITY           SKY/WX    TMP DP  RH WIND       PRES   REMARKS
SWIFT CURRENT  FOG       59 N/A N/A W6        30.09R VSB 1/8
REGINA         PTSUNNY   61  59  94 W3        30.03R
SASKATOON      FOG       59  59 100 NW7       30.04R VSB 1
CYPRESS HILLS    N/A     57  54  88 NW7         N/A
VAL MARIE        N/A     61  59  94 NW9         N/A
ROCKGLEN         N/A     59  59 100 NW10        N/A
ASSINIBOIA       N/A     61  57  88 SW5         N/A
$$


USA.gov is the U.S. government's official web portal to all federal, state and local government web resources and services.